Location: Unspecified
(42.5000°N, 12.5000°E)
Time: 15:01:55
(UTC+01:00)

ISS - Visible Passes

Search period start: 30 January 2023 00:00
Search period end: 09 February 2023 00:00
Orbit: 413 x 419 km, 51.6° (Epoch: 30 January)

Date Brightness Start Highest point End Pass type
(mag) Time Alt. Az. Time Alt. Az. Time Alt. Az.
30 Jan -2.7 18:33:07 10° NW 18:36:09 30° NNE 18:37:03 26° NE visible
30 Jan -0.3 20:09:44 10° WNW 20:09:57 11° WNW 20:09:57 11° WNW visible
31 Jan -3.0 19:20:59 10° WNW 19:23:37 51° WNW 19:23:37 51° WNW visible
01 Feb -3.7 18:32:18 10° NW 18:35:39 61° NNE 18:37:25 25° ESE visible
01 Feb -0.4 20:09:44 10° W 20:10:20 13° W 20:10:20 13° W visible
02 Feb -2.1 19:20:30 10° WNW 19:23:29 30° SW 19:24:18 26° SSW visible
03 Feb -3.0 18:31:32 10° WNW 18:34:49 52° SW 18:38:05 10° SE visible
04 Feb -0.6 19:21:10 10° WSW 19:22:18 11° SW 19:23:25 10° SSW visible
05 Feb -1.0 18:31:11 10° W 18:33:40 19° SW 18:36:10 10° S visible
